User: anonymous   Login
Location: Unspecified
(0.0000°N, 0.0000°E)
Time: 21:35:31
(UTC+00:00)
Language:

OTV 4 - Orbit

View from above orbital plane
View from above orbital plane
View from above satellite
View from above satellite

Ground track
Ground track

The orbit data is extracted from the following two-line orbital elements,

1 40651U 15025A   17087.15237665 0.00000000  00000-0  00000-0 0    00
2 40651  37.9996 198.3921 0011000  60.8488 299.1503 15.80541898    08
Epoch (UTC): 28 March 2017 03:39:25
Eccentricity: 0.0011000
inclination: 37.9996°
perigee height: 321 km
apogee height: 336 km
right ascension of ascending node: 198.3921°
argument of perigee: 60.8488°
revolutions per day: 15.80541898
mean anomaly at epoch: 299.1503°
orbit number at epoch: 0

The dashed part of the orbit path shows where the satellite is in the earth's shadow,  

DLR